Location: Unspecified
(0.0000°N, 0.0000°E)
Time: 16:25:19
(UTC+00:00)

USA 102 - Visible Passes

Search period start: 28 May 2023 00:00
Search period end: 07 June 2023 00:00
Orbit: 263 x 266 km, 105.1° (Epoch: 02 June)

Date Brightness Start Highest point End Pass type
(mag) Time Alt. Az. Time Alt. Az. Time Alt. Az.
02 Jun 5.5 18:19:09 10° SSE 18:24:19 49° SW 18:26:55 10° WNW visible
02 Jun 6.8 18:55:28 10° S 18:59:25 26° SW 19:02:28 10° W visible
02 Jun 7.6 19:32:53 10° SSW 19:34:55 13° SW 19:36:53 10° WSW visible
03 Jun 4.7 18:26:53 10° SSE 18:27:41 11° SSE 18:28:19 10° SSE visible
